Location: 22
(39.7117°N, 89.5929°W)
Time: 18:48:27
(UTC-05:00)

Vanguard 3 - Pass Details

Date: 31 January 2023
Orbit: 508 x 3249 km, 33.4° (Epoch: 30 March)

Event Time Altitude Azimuth Distance (km) Brightness Sun altitude
Rises 20:58:29 0° 257° (WSW) 4,924 11.8 -42.6°
Reaches altitude 10° 21:01:13 10° 254° (WSW) 4,234 11.3 -43.1°
Enters shadow 21:12:22 67° 199° (SSW) 2,732 9.5 -45.2°
Maximum altitude 21:13:40 69° 175° (S) 2,778 - -45.4°
Drops below altitude 10° 21:32:48 10° 97° (E) 6,176 - -48.9°
Sets 21:37:45 0° 96° (E) 7,212 - -49.8°
